Location: Kirkland Lake
(48.1510°N, 80.0330°W)
Time: 12:53:31
(UTC-04:00)

ISS - Visible Passes

Search period start: 13 May 2025 00:00
Search period end: 23 May 2025 00:00
Orbit: 416 x 420 km, 51.6° (Epoch: 13 May)

Date Brightness Start Highest point End Pass type
(mag) Time Alt. Az. Time Alt. Az. Time Alt. Az.
13 May -2.6 00:51:07 10° WNW 00:53:43 42° NNW 00:53:43 42° NNW visible
13 May -3.1 22:26:00 10° W 22:29:19 56° NNW 22:32:38 10° ENE visible
14 May -2.8 00:03:10 10° WNW 00:06:26 46° N 00:07:26 34° NE visible
14 May -1.0 01:40:01 10° WNW 01:40:21 12° WNW 01:40:21 12° WNW visible
14 May -3.4 21:37:59 10° WSW 21:41:20 70° NNW 21:44:41 10° ENE visible
14 May -2.6 23:15:09 10° WNW 23:18:24 44° N 23:21:05 14° ENE visible
15 May -2.3 00:52:03 10° WNW 00:54:00 32° WNW 00:54:00 32° WNW visible
15 May -2.6 22:27:07 10° WNW 22:30:21 44° N 22:33:36 10° ENE visible
16 May -3.5 00:04:06 10° WNW 00:07:27 63° NNE 00:07:37 62° NE visible
16 May -2.7 21:39:01 10° W 21:42:17 48° N 21:45:34 10° ENE visible
16 May -3.0 23:16:06 10° WNW 23:19:25 52° NNE 23:21:13 23° E visible
17 May -1.6 00:52:56 10° WNW 00:54:07 20° W 00:54:07 20° W visible
17 May -2.8 22:28:05 10° WNW 22:31:20 46° N 22:34:36 10° E visible
18 May -3.4 00:04:55 10° WNW 00:07:43 57° W 00:07:43 57° W visible
18 May -2.6 21:40:01 10° WNW 21:43:15 44° N 21:46:29 10° ENE visible
18 May -3.8 23:16:54 10° WNW 23:20:16 81° NNE 23:21:19 41° ESE visible
19 May -1.0 00:54:04 10° W 00:54:13 11° W 00:54:13 11° W visible
19 May -3.4 22:28:53 10° WNW 22:32:13 62° NNE 22:34:54 15° E visible
20 May -2.3 00:05:48 10° WNW 00:07:49 27° WSW 00:07:49 27° WSW visible
20 May -3.0 21:40:49 10° WNW 21:44:08 51° NNE 21:47:25 10° E visible
20 May -3.5 23:17:40 10° WNW 23:20:57 51° SSW 23:21:25 46° S visible
21 May -3.8 22:29:34 10° WNW 22:32:55 76° SSW 22:35:01 21° ESE visible
22 May -1.3 00:07:11 10° W 00:07:56 13° WSW 00:07:56 13° WSW visible
22 May -3.7 21:41:29 10° WNW 21:44:52 79° NNE 21:48:13 10° ESE visible
22 May -2.3 23:18:37 10° W 23:21:21 23° SW 23:21:33 23° SSW visible
